Dinard/Pleurtuit, France

10:46 AM CET on December 10, 2016 (GMT +0100)
Pleurtuit-Saint Malo

Weather History for LFRD - May, 2013

Change the Weather History Date:

Wednesday, May 15, 2013

  Actual Average Record
Temperature  
Mean Temperature 48 °F -  
Max Temperature 55 °F 64 °F 78 °F (2000)
Min Temperature 41 °F 50 °F 34 °F (2016)
Degree Days  
Heating Degree Days 17    
Moisture  
Dew Point 40 °F    
Average Humidity 73    
Maximum Humidity 93    
Minimum Humidity 51    
Precipitation  
Precipitation 0.00 in - - ()
Sea Level Pressure  
Sea Level Pressure 29.53 in    
Wind  
Wind Speed 11 mph ()    
Max Wind Speed 15 mph    
Max Gust Speed -    
Visibility 6.2 miles    
Events Rain    
Averages and records for this station are not official NWS values.
T = Trace of Precipitation, MM = Missing Value Source: Averaged Metar Reports

Daily Weather History Graph

Daily Weather History Graph

Search for Another Location

Airport or City:

Trip Planner

Search our weather history database for the weather conditions in past years. The results will help you decide how hot, cold, wet, or windy it might be!

Date:

Astronomy

May. 15, 2013 Rise Set
Actual Time 6:27 AM CEST 9:42 PM CEST
Civil Twilight 5:49 AM CEST 10:20 PM CEST
Nautical Twilight 5:00 AM CEST 11:10 PM CEST
Astronomical Twilight 3:57 AM CEST 12:14 AM CEST
Moon 10:53 AM CEST (5/15) 1:17 AM CEST (5/15)
Length of Visible Light 16h 30m
Length of Day
15h 15m
Waxing Crescent, 24% of the Moon is Illuminated
May 15
Waxing Crescent
May 18
First Quarter
May 25
Full
May 31
Last Quarter
Jun 8
New

Hourly Weather History & Observations

Time (CEST) Temp. Windchill Dew Point Humidity Pressure Visibility Wind Dir Wind Speed Gust Speed Precip Events Conditions
12:00 AM 44.6 °F 38.4 °F 37.4 °F 76% 29.50 in 6.2 mi SW 12.7 mph - N/A   Overcast
12:30 AM 42.8 °F 36.2 °F 37.4 °F 81% 29.50 in 6.2 mi SW 12.7 mph - N/A   Unknown
1:00 AM 42.8 °F 36.6 °F 37.4 °F 81% 29.50 in 6.2 mi SSW 11.5 mph - N/A   Partly Cloudy
1:30 AM 42.8 °F 35.8 °F 39.2 °F 87% 29.50 in 6.2 mi SSW 13.8 mph - N/A   Unknown
2:00 AM 42.8 °F 35.8 °F 37.4 °F 81% 29.47 in 6.2 mi SW 13.8 mph - N/A   Unknown
2:30 AM 42.8 °F 35.4 °F 39.2 °F 87% 29.47 in 6.2 mi SW 15.0 mph - N/A   Unknown
3:00 AM 42.8 °F 35.4 °F 39.2 °F 87% 29.47 in 6.2 mi SW 15.0 mph - N/A   Unknown
3:30 AM 42.8 °F 35.8 °F 39.2 °F 87% 29.47 in 6.2 mi SW 13.8 mph - N/A   Unknown
4:00 AM 44.6 °F 37.8 °F 39.2 °F 81% 29.44 in 6.2 mi SW 15.0 mph - N/A   Mostly Cloudy
4:30 AM 42.8 °F 36.6 °F 39.2 °F 87% 29.44 in 6.2 mi SW 11.5 mph - N/A   Partly Cloudy
5:00 AM 44.6 °F 38.4 °F 39.2 °F 81% 29.47 in 6.2 mi SW 12.7 mph - N/A   Unknown
5:30 AM 44.6 °F 38.8 °F 39.2 °F 81% 29.47 in 6.2 mi SW 11.5 mph - N/A   Mostly Cloudy
6:00 AM 44.6 °F 40.2 °F 41.0 °F 87% 29.44 in 6.2 mi SW 8.1 mph - N/A Rain Light Rain
6:30 AM 44.6 °F 39.2 °F 41.0 °F 87% 29.47 in 6.2 mi SSW 10.4 mph - N/A   Mostly Cloudy
7:00 AM 44.6 °F 39.7 °F 41.0 °F 87% 29.47 in 6.2 mi SW 9.2 mph - N/A   Unknown
7:30 AM 44.6 °F 38.8 °F 41.0 °F 87% 29.47 in 6.2 mi SW 11.5 mph - N/A   Unknown
8:00 AM 46.4 °F 41.1 °F 41.0 °F 81% 29.47 in 6.2 mi SSW 11.5 mph - N/A   Partly Cloudy
8:30 AM 48.2 °F - 41.0 °F 76% 29.47 in 6.2 mi SW 13.8 mph - N/A   Unknown
9:00 AM 48.2 °F - 41.0 °F 76% 29.47 in 6.2 mi SW 15.0 mph - N/A   Partly Cloudy
9:30 AM 50.0 °F - 41.0 °F 71% 29.47 in 6.2 mi WSW 15.0 mph - N/A   Partly Cloudy
10:00 AM 50.0 °F - 41.0 °F 71% 29.50 in 6.2 mi WSW 13.8 mph - N/A   Mostly Cloudy
10:30 AM 50.0 °F - 41.0 °F 71% 29.50 in 6.2 mi WSW 12.7 mph - N/A   Mostly Cloudy
11:00 AM 51.8 °F - 39.2 °F 62% 29.50 in 6.2 mi West 11.5 mph - N/A   Mostly Cloudy
11:30 AM 51.8 °F - 39.2 °F 62% 29.50 in 6.2 mi WNW 9.2 mph - N/A   Mostly Cloudy
12:00 PM 51.8 °F - 39.2 °F 62% 29.53 in 6.2 mi West 5.8 mph - N/A   Mostly Cloudy
12:30 PM 50.0 °F - 42.8 °F 76% 29.53 in 6.2 mi NW 13.8 mph - N/A   Mostly Cloudy
1:00 PM 51.8 °F - 41.0 °F 67% 29.53 in 6.2 mi WNW 13.8 mph - N/A   Mostly Cloudy
1:30 PM 53.6 °F - 42.8 °F 67% 29.53 in 6.2 mi NW 15.0 mph - N/A   Partly Cloudy
2:00 PM 53.6 °F - 41.0 °F 62% 29.53 in 6.2 mi NW 13.8 mph - N/A   Partly Cloudy
2:30 PM 53.6 °F - 41.0 °F 62% 29.53 in 6.2 mi NW 12.7 mph - N/A   Unknown
3:00 PM 55.4 °F - 42.8 °F 63% 29.56 in 6.2 mi NW 12.7 mph - N/A   Unknown
3:30 PM 55.4 °F - 37.4 °F 51% 29.56 in 6.2 mi NNW 11.5 mph - N/A   Unknown
4:00 PM 53.6 °F - 39.2 °F 58% 29.56 in 6.2 mi NNW 12.7 mph - N/A   Partly Cloudy
4:30 PM 55.4 °F - 41.0 °F 58% 29.56 in 6.2 mi NNW 10.4 mph - N/A   Mostly Cloudy
5:00 PM 55.4 °F - 39.2 °F 54% 29.56 in 6.2 mi NNW 12.7 mph - N/A   Partly Cloudy
5:30 PM 53.6 °F - 41.0 °F 62% 29.56 in 6.2 mi NNW 12.7 mph - N/A   Scattered Clouds
6:00 PM 51.8 °F - 39.2 °F 62% 29.59 in 6.2 mi NNW 13.8 mph - N/A   Scattered Clouds
6:30 PM 53.6 °F - 39.2 °F 58% 29.59 in 6.2 mi NNW 10.4 mph - N/A   Mostly Cloudy
7:00 PM 53.6 °F - 39.2 °F 58% 29.59 in 6.2 mi NNW 10.4 mph - N/A   Partly Cloudy
7:30 PM 51.8 °F - 39.2 °F 62% 29.59 in 6.2 mi NNW 10.4 mph - N/A   Partly Cloudy
8:00 PM 50.0 °F - 39.2 °F 66% 29.59 in 6.2 mi NNW 9.2 mph - N/A   Partly Cloudy
8:30 PM 50.0 °F - 39.2 °F 66% 29.59 in 6.2 mi NNW 9.2 mph - N/A   Scattered Clouds
9:00 PM 50.0 °F - 39.2 °F 66% 29.59 in 6.2 mi North 8.1 mph - N/A   Mostly Cloudy
9:30 PM 50.0 °F - 39.2 °F 66% 29.62 in 6.2 mi NNW 6.9 mph - N/A   Mostly Cloudy
10:00 PM 46.4 °F 43.5 °F 39.2 °F 76% 29.62 in 6.2 mi NNW 5.8 mph - N/A   Scattered Clouds
10:30 PM 44.6 °F 41.4 °F 39.2 °F 81% 29.62 in 6.2 mi NW 5.8 mph - N/A   Unknown
11:00 PM 41.0 °F 38.0 °F 37.4 °F 87% 29.62 in 6.2 mi NNW 4.6 mph - N/A   Unknown
11:30 PM 41.0 °F 39.0 °F 39.2 °F 93% 29.62 in 6.2 mi Variable 3.5 mph - N/A   Partly Cloudy